Torna al catalogo

DMSP 5D-2 F15 DEB

AttivoSSO
NORAD 25992·DEBRIS·🇺🇸 United States

Lanciato Dec 12, 1999 da Vandenberg Space Force Base

Loading…

Prossimi Passaggi (prossime 24 ore)

TLE

AggiornatoSource: Space-Track

Epoca: Sep 14, 2026, 23:34 UTC

1 25992U 99067B   26257.98196583  .00002167  00000-0  57664-3 0  9996
2 25992  98.1844 267.8339 0006855  54.5732 335.3256 14.49477804396970

Traccia DMSP 5D-2 F15 DEB in tempo reale con AllMySat

Download on the App Store